Weather History for Whiteman AFB, MO

Change the Weather History Date:

Saturday, July 13, 2013

  Actual Average Record
Temperature  
Mean Temperature 76 °F -  
Max Temperature 87 °F 88 °F 95 °F (1997)
Min Temperature 65 °F 68 °F 58 °F (2008)
Cooling Degree Days 11    
Growing Degree Days 26 (Base 50)    
Moisture  
Dew Point 61 °F    
Average Humidity 63    
Maximum Humidity 81    
Minimum Humidity 44    
Precipitation  
Precipitation 0.00 in - - ()
Sea Level Pressure  
Sea Level Pressure 30.04 in    
Wind  
Wind Speed 7 mph (SE)    
Max Wind Speed 12 mph    
Max Gust Speed -    
Visibility 10 miles    
Events      
Averages and records for this station are not official NWS values.
T = Trace of Precipitation, MM = Missing Value Source: NWS Daily Summary

Daily Weather History Graph

Daily Weather History Graph

Search for Another Location

Airport:

Trip Planner

Search our weather history database for the weather conditions in past years. The results will help you decide how hot, cold, wet, or windy it might be!

Date:

Astronomy

Jul. 13, 2013 Rise Set
Actual Time 6:00 AM CDT 8:39 PM CDT
Civil Twilight 5:29 AM CDT 9:10 PM CDT
Nautical Twilight 4:50 AM CDT 9:49 PM CDT
Astronomical Twilight 4:06 AM CDT 10:32 PM CDT
Moon 11:13 AM CDT (7/13) 11:24 PM CDT (7/13)
Length of Visible Light 15h 41m
Length of Day
14h 38m
Waxing Crescent, 26% of the Moon is Illuminated
Jul 13
Waxing Crescent
Jul 15
First Quarter
Jul 22
Full
Jul 29
Last Quarter
Aug 6
New

Hourly Weather History & Observations

Time (CDT) Temp. Heat Index Dew Point Humidity Pressure Visibility Wind Dir Wind Speed Gust Speed Precip Events Conditions
12:58 AM 69.6 °F - 59.5 °F 70% 30.03 in 10.0 mi SE 5.8 mph - N/A   Clear
1:58 AM 67.5 °F - 59.5 °F 76% 30.03 in 10.0 mi SE 6.9 mph - N/A   Clear
2:58 AM 67.6 °F - 59.5 °F 75% 30.05 in 10.0 mi SE 5.8 mph - N/A   Clear
3:58 AM 66.2 °F - 59.5 °F 79% 30.04 in 10.0 mi SSE 5.8 mph - N/A   Clear
4:58 AM 65.7 °F - 59.7 °F 81% 30.03 in 10.0 mi SSE 6.9 mph - N/A   Clear
5:58 AM 66.9 °F - 58.8 °F 75% 30.04 in 10.0 mi SSE 9.2 mph - N/A   Clear
6:58 AM 67.1 °F - 59.4 °F 76% 30.05 in 10.0 mi SSE 6.9 mph - N/A   Clear
7:58 AM 69.8 °F - 60.1 °F 71% 30.06 in 10.0 mi SSE 8.1 mph - N/A   Clear
8:58 AM 72.9 °F - 61.2 °F 67% 30.07 in 10.0 mi South 8.1 mph - N/A   Scattered Clouds
9:58 AM 76.5 °F - 61.7 °F 60% 30.08 in 10.0 mi SSE 6.9 mph - N/A   Partly Cloudy
10:58 AM 80.4 °F 81.4 °F 61.5 °F 52% 30.07 in 10.0 mi South 11.5 mph - N/A   Clear
11:58 AM 81.7 °F 82.7 °F 62.2 °F 52% 30.06 in 10.0 mi South 9.2 mph - N/A   Partly Cloudy
12:58 PM 82.2 °F 83.5 °F 63.7 °F 53% 30.05 in 10.0 mi SSE 8.1 mph - N/A   Partly Cloudy
1:58 PM 84.7 °F 85.4 °F 62.2 °F 47% 30.04 in 10.0 mi SE 8.1 mph - N/A   Scattered Clouds
2:58 PM 86.2 °F 87.1 °F 63.1 °F 46% 30.02 in 10.0 mi South 6.9 mph - N/A   Partly Cloudy
3:58 PM 87.3 °F 88.0 °F 62.8 °F 44% 30.01 in 10.0 mi ESE 8.1 mph - N/A   Clear
4:58 PM 83.8 °F 84.9 °F 63.5 °F 50% 30.01 in 10.0 mi East 9.2 mph - N/A   Clear
5:58 PM 82.0 °F 83.3 °F 63.1 °F 53% 30.01 in 10.0 mi ESE 6.9 mph - N/A   Clear
6:58 PM 79.5 °F - 62.2 °F 55% 30.00 in 10.0 mi ESE 9.2 mph - N/A   Clear
7:58 PM 76.6 °F - 63.3 °F 63% 29.99 in 10.0 mi SE 8.1 mph - N/A   Partly Cloudy
9:58 PM 73.6 °F - 63.3 °F 70% 30.02 in 10.0 mi ESE 5.8 mph - N/A   Mostly Cloudy
10:58 PM 73.0 °F - 63.0 °F 71% 30.03 in 10.0 mi ESE 4.6 mph - N/A   Mostly Cloudy